Flag for Italy Weather past 2 weeks in Naples, Italy

Now
73 °F

Clear.


Feels Like: 74 °F
Forecast: 69 / 87 °F
Wind: No wind

Location: Naples / Capodichino

Current Time: Sep 1, 2015 at 4:24:22 AM

Latest Report: Sep 1, 2015 at 3:50 AM


Visibility: 10 mi

Pressure: 29.98 "Hg

Humidity: 78%

Dew point: 66 °F

Location of NaplesLocation

Historic Weather in Naples — Graph

°F

Naples temperature yesterday

Maximum temperature yesterday: 88 °F (at 10:20 AM)
Minimum temperature yesterday: 72 °F (at 5:50 AM)
Average temperature yesterday: 81 °F

Past Weeks' High & Low Weather Summary

 TemperatureHumidityPressure
High93 °F (Aug 29, 11:50 AM)88% (Aug 17, 4:20 AM)30.15 "Hg (Aug 17, 4:20 AM)
Low66 °F (Aug 17, 4:20 AM)21% (Aug 30, 11:50 AM)29.83 "Hg (Aug 17, 4:20 AM)
Average79 °F61%30.02 "Hg
* Reported Aug 17 2:50 AM — Sep 1 2:50 AM, Naples, Weather by CustomWeather, © 2015

Note: Actual official high and low records may vary slightly from our data, if they occured in-between our weather recording intervals... More about our weather records

Advertising

Naples weather history for previous 24 hours

 ConditionsComfort  
Time TempWeatherWind HumidityBarometerVisibility
2:50 AM
Tue, Sep 1
75 °FClear.1 mph74%29.98 "Hg10 mi
1:50 AM77 °FClear.1 mph74%29.98 "Hg10 mi
1:20 AM77 °FClear.1 mph74%29.98 "Hg10 mi
12:50 AM77 °FClear.No wind74%29.98 "Hg10 mi
11:50 PM
Mon, Aug 31
77 °FClear.No wind74%30.01 "Hg10 mi
11:20 PM79 °FClear.No wind70%30.01 "Hg10 mi
10:50 PM79 °FClear.No wind70%30.01 "Hg10 mi
10:20 PM81 °FClear.No wind62%30.01 "Hg10 mi
9:50 PM79 °FClear.No wind84%30.01 "Hg10 mi
9:20 PM79 °FClear.No wind79%30.01 "Hg10 mi
8:50 PM81 °FPassing clouds.3 mph79%30.01 "HgN/A
8:20 PM81 °FSunny.2 mph79%30.01 "Hg10 mi
7:50 PM81 °FSunny.2 mph74%30.01 "Hg10 mi
7:20 PM82 °FPassing clouds.5 mph70%30.01 "HgN/A
6:50 PM82 °FPassing clouds.6 mph70%30.01 "HgN/A
6:20 PM82 °FPassing clouds.7 mph70%30.01 "HgN/A
5:50 PM84 °FPassing clouds.8 mph66%30.01 "HgN/A
5:20 PM86 °FPassing clouds.8 mph52%30.01 "HgN/A
4:50 PM88 °FPassing clouds.8 mph49%30.01 "HgN/A
4:20 PM88 °FPassing clouds.9 mph49%30.01 "HgN/A
3:50 PM88 °FPassing clouds.9 mph55%30.04 "HgN/A
3:20 PM88 °FPassing clouds.10 mph46%30.04 "HgN/A
2:50 PM88 °FPassing clouds.12 mph46%30.04 "HgN/A
2:20 PM88 °FSunny.12 mph49%30.04 "Hg10 mi
1:50 PM88 °FPassing clouds.10 mph46%30.04 "HgN/A
1:20 PM88 °FPassing clouds.9 mph52%30.04 "HgN/A
12:50 PM88 °FPassing clouds.9 mph49%30.04 "HgN/A
12:20 PM88 °FPassing clouds.9 mph46%30.07 "HgN/A
11:50 AM86 °FPassing clouds.8 mph46%30.07 "HgN/A
11:20 AM84 °FSunny.8 mph43%N/A10 mi
10:50 AM88 °FPassing clouds.6 mph40%30.07 "HgN/A
10:20 AM88 °FSunny.2 mph40%30.07 "Hg10 mi
9:50 AM86 °FSunny.2 mph38%30.07 "Hg10 mi
9:20 AM82 °FSunny.2 mph42%30.07 "Hg10 mi
8:50 AM81 °FSunny.2 mph48%30.07 "Hg10 mi
8:20 AM79 °FSunny.2 mph51%30.07 "Hg10 mi
7:50 AM77 °FSunny.2 mph57%30.07 "Hg10 mi
7:20 AM77 °FClear.2 mph61%30.07 "Hg10 mi
6:50 AM73 °FClear.2 mph69%30.07 "Hg10 mi
6:20 AM72 °FClear.1 mph73%30.07 "Hg10 mi
5:50 AM72 °FClear.No wind73%30.07 "Hg10 mi
4:50 AM73 °FClear.No wind74%30.04 "Hg10 mi
4:20 AM75 °FClear.1 mph69%30.07 "Hg10 mi
Weather by CustomWeather, © 2015

See weather overviewHow to use our weather pages